• în Republica Moldova
  • Lista ţărilor
  • Pe 7 zile
  • Temperatura apei
  • Hartă satelitară
  • Meteo pe hartă
  • Widget-uri
  • user-avatar
    Intrare

    Meteo pe oră la Umcheno

    Astăzi, 26 Mai, Sâmbătă

    Timp Temperatura Precipitaţii Vânt Presiune Umiditate
    00:00 +8°C° 0 mm 4 m/s 752 mmHg 75%
    01:00 +8°C° 0 mm 3 m/s 752 mmHg 76%
    02:00 +7°C° 0 mm 2 m/s 752 mmHg 81%
    03:00 +8°C° 0 mm 2 m/s 753 mmHg 80%
    04:00 +8°C° 0 mm 3 m/s 753 mmHg 79%
    05:00 +8°C° 0 mm 3 m/s 754 mmHg 77%
    06:00 +10°C° 0 mm 3 m/s 754 mmHg 70%
    07:00 +12°C° 0 mm 3 m/s 755 mmHg 63%
    08:00 +13°C° 0 mm 4 m/s 755 mmHg 56%
    09:00 +14°C° 0 mm 4 m/s 755 mmHg 53%
    10:00 +15°C° 0 mm 4 m/s 755 mmHg 51%
    11:00 +17°C° 0 mm 4 m/s 755 mmHg 49%
    12:00 +17°C° 0 mm 4 m/s 755 mmHg 48%
    13:00 +17°C° 0 mm 3 m/s 755 mmHg 48%
    14:00 +18°C° 0 mm 3 m/s 755 mmHg 47%
    15:00 +18°C° 0 mm 3 m/s 755 mmHg 50%
    16:00 +17°C° 0 mm 2 m/s 755 mmHg 52%
    17:00 +17°C° 0 mm 2 m/s 755 mmHg 54%
    18:00 +15°C° 0 mm 2 m/s 755 mmHg 59%
    19:00 +14°C° 0 mm 2 m/s 755 mmHg 64%
    20:00 +12°C° 0 mm 2 m/s 755 mmHg 68%
    21:00 +10°C° 0 mm 2 m/s 755 mmHg 70%
    22:00 +10°C° 0 mm 2 m/s 755 mmHg 72%
    23:00 +9°C° 0 mm 2 m/s 755 mmHg 74%

    Mâine, 27 Mai, Duminică

    Timp Temperatura Precipitaţii Vânt Presiune Umiditate
    00:00 +8°C° 0 mm 2 m/s 755 mmHg 75%
    01:00 +8°C° 0 mm 2 m/s 755 mmHg 77%
    02:00 +7°C° 0 mm 2 m/s 756 mmHg 79%
    03:00 +8°C° 0 mm 2 m/s 755 mmHg 79%
    04:00 +8°C° 0 mm 2 m/s 755 mmHg 79%
    05:00 +9°C° 0 mm 2 m/s 755 mmHg 79%
    06:00 +12°C° 0 mm 2 m/s 755 mmHg 74%
    07:00 +12°C° 0 mm 3 m/s 755 mmHg 69%
    08:00 +14°C° 0 mm 3 m/s 754 mmHg 63%
    09:00 +16°C° 0 mm 3 m/s 754 mmHg 60%
    10:00 +17°C° 0 mm 3 m/s 754 mmHg 56%
    11:00 +18°C° 0 mm 3 m/s 753 mmHg 53%
    12:00 +19°C° 0 mm 4 m/s 753 mmHg 53%
    13:00 +19°C° 0 mm 4 m/s 752 mmHg 52%
    14:00 +20°C° 0 mm 4 m/s 751 mmHg 52%
    15:00 +20°C° 0 mm 4 m/s 751 mmHg 55%
    16:00 +20°C° 0 mm 4 m/s 750 mmHg 59%
    17:00 +20°C° 0 mm 3 m/s 750 mmHg 62%
    18:00 +18°C° 0 mm 3 m/s 750 mmHg 67%
    19:00 +16°C° 0 mm 3 m/s 749 mmHg 73%
    20:00 +13°C° 0 mm 3 m/s 749 mmHg 78%
    21:00 +13°C° 0 mm 3 m/s 749 mmHg 80%
    22:00 +12°C° 0 mm 3 m/s 749 mmHg 81%
    23:00 +12°C° 0 mm 3 m/s 749 mmHg 82%

    Poimâine, 28 Mai, Luni

    Timp Temperatura Precipitaţii Vânt Presiune Umiditate
    00:00 +12°C° 0 mm 3 m/s 749 mmHg 84%
    01:00 +12°C° 0 mm 3 m/s 750 mmHg 85%
    02:00 +11°C° 0 mm 3 m/s 750 mmHg 87%
    03:00 +11°C° 0 mm 3 m/s 750 mmHg 88%
    04:00 +12°C° 0 mm 3 m/s 750 mmHg 88%
    05:00 +12°C° 0 mm 3 m/s 751 mmHg 89%
    06:00 +13°C° 0 mm 4 m/s 751 mmHg 82%
    07:00 +14°C° 0 mm 4 m/s 751 mmHg 75%
    08:00 +15°C° 0 mm 4 m/s 752 mmHg 68%
    09:00 +17°C° 0 mm 4 m/s 752 mmHg 62%
    10:00 +18°C° 0 mm 4 m/s 752 mmHg 57%
    11:00 +17°C° 0 mm 5 m/s 752 mmHg 51%
    12:00 +19°C° 0 mm 4 m/s 753 mmHg 49%
    13:00 +19°C° 0 mm 4 m/s 753 mmHg 48%
    14:00 +19°C° 0 mm 4 m/s 753 mmHg 46%
    15:00 +18°C° 0 mm 4 m/s 753 mmHg 49%
    16:00 +18°C° 0 mm 3 m/s 753 mmHg 52%
    17:00 +18°C° 0 mm 3 m/s 753 mmHg 55%
    18:00 +16°C° 0 mm 3 m/s 753 mmHg 58%
    19:00 +14°C° 0 mm 2 m/s 753 mmHg 62%
    20:00 +12°C° 0 mm 2 m/s 753 mmHg 66%
    21:00 +10°C° 0 mm 2 m/s 754 mmHg 67%
    22:00 +10°C° 0 mm 1 m/s 754 mmHg 69%
    23:00 +10°C° 0 mm 1 m/s 754 mmHg 70%

    29 Mai, Marţi

    Timp Temperatura Precipitaţii Vânt Presiune Umiditate
    00:00 +9°C° 0 mm 1 m/s 754 mmHg 71%
    01:00 +9°C° 0 mm 1 m/s 754 mmHg 73%
    02:00 +7°C° 0 mm 0 m/s 754 mmHg 74%
    03:00 +9°C° 0 mm 1 m/s 754 mmHg 74%
    04:00 +10°C° 0 mm 1 m/s 754 mmHg 74%
    05:00 +10°C° 0 mm 1 m/s 754 mmHg 74%
    06:00 +12°C° 0 mm 1 m/s 754 mmHg 68%
    07:00 +14°C° 0 mm 2 m/s 754 mmHg 63%
    08:00 +16°C° 0 mm 2 m/s 754 mmHg 58%
    09:00 +17°C° 0 mm 2 m/s 753 mmHg 54%
    10:00 +18°C° 0 mm 3 m/s 753 mmHg 51%
    11:00 +19°C° 0 mm 3 m/s 752 mmHg 48%
    12:00 +20°C° 0 mm 3 m/s 752 mmHg 48%
    13:00 +20°C° 0 mm 3 m/s 751 mmHg 48%
    14:00 +21°C° 0 mm 3 m/s 751 mmHg 49%
    15:00 +21°C° 0 mm 3 m/s 750 mmHg 53%
    16:00 +21°C° 0 mm 3 m/s 749 mmHg 56%
    17:00 +21°C° 0 mm 3 m/s 749 mmHg 60%
    18:00 +19°C° 0 mm 3 m/s 748 mmHg 65%
    19:00 +17°C° 0 mm 3 m/s 748 mmHg 71%
    20:00 +15°C° 0 mm 2 m/s 748 mmHg 76%
    21:00 +13°C° 0 mm 3 m/s 747 mmHg 77%
    22:00 +13°C° 0 mm 3 m/s 747 mmHg 79%
    23:00 +12°C° 0 mm 3 m/s 747 mmHg 80%

    30 Mai, Miercuri

    Timp Temperatura Precipitaţii Vânt Presiune Umiditate
    00:00 +12°C° 0 mm 3 m/s 746 mmHg 82%
    01:00 +12°C° 0 mm 3 m/s 746 mmHg 83%
    02:00 +12°C° 0 mm 3 m/s 746 mmHg 85%
    03:00 +12°C° 0 mm 4 m/s 746 mmHg 85%
    04:00 +13°C° 0 mm 4 m/s 745 mmHg 86%
    05:00 +13°C° 0 mm 4 m/s 745 mmHg 87%
    06:00 +15°C° 0 mm 4 m/s 745 mmHg 82%
    07:00 +18°C° 0 mm 4 m/s 745 mmHg 78%
    08:00 +20°C° 0 mm 4 m/s 745 mmHg 74%
    09:00 +21°C° 0 mm 4 m/s 744 mmHg 68%
    10:00 +22°C° 0 mm 4 m/s 744 mmHg 61%
    11:00 +25°C° 0 mm 4 m/s 744 mmHg 55%
    12:00 +25°C° 0 mm 4 m/s 744 mmHg 54%
    13:00 +26°C° 0 mm 4 m/s 743 mmHg 53%
    14:00 +26°C° 0 mm 4 m/s 743 mmHg 52%
    15:00 +26°C° 0 mm 3 m/s 743 mmHg 57%
    16:00 +25°C° 0 mm 3 m/s 743 mmHg 61%
    17:00 +25°C° 0 mm 3 m/s 742 mmHg 66%
    18:00 +22°C° 0,1 mm 3 m/s 742 mmHg 73%
    19:00 +20°C° 0,1 mm 3 m/s 742 mmHg 79%
    20:00 +18°C° 0,1 mm 3 m/s 742 mmHg 86%
    21:00 +17°C° 0 mm 3 m/s 742 mmHg 88%
    22:00 +17°C° 0 mm 2 m/s 742 mmHg 91%
    23:00 +16°C° 0 mm 2 m/s 741 mmHg 93%

    31 Mai, Joi

    Timp Temperatura Precipitaţii Vânt Presiune Umiditate
    00:00 +16°C° 0 mm 2 m/s 741 mmHg 93%
    01:00 +16°C° 0 mm 2 m/s 741 mmHg 94%
    02:00 +15°C° 0 mm 2 m/s 741 mmHg 95%
    03:00 +16°C° 0 mm 2 m/s 741 mmHg 94%
    04:00 +16°C° 0 mm 3 m/s 741 mmHg 93%
    05:00 +16°C° 0 mm 3 m/s 740 mmHg 92%
    06:00 +18°C° 0,2 mm 3 m/s 740 mmHg 87%
    07:00 +20°C° 0,2 mm 3 m/s 740 mmHg 82%
    08:00 +21°C° 0,2 mm 4 m/s 740 mmHg 77%
    09:00 +22°C° 0,2 mm 4 m/s 740 mmHg 71%
    10:00 +23°C° 0,2 mm 4 m/s 740 mmHg 65%
    11:00 +25°C° 0,2 mm 5 m/s 740 mmHg 59%
    12:00 +25°C° 0,2 mm 5 m/s 740 mmHg 57%
    13:00 +26°C° 0,2 mm 5 m/s 739 mmHg 56%
    14:00 +26°C° 0,2 mm 5 m/s 739 mmHg 54%
    15:00 +25°C° 0,2 mm 5 m/s 739 mmHg 59%
    16:00 +23°C° 0,2 mm 4 m/s 739 mmHg 64%
    17:00 +22°C° 0,2 mm 4 m/s 739 mmHg 68%
    18:00 +21°C° 0 mm 4 m/s 740 mmHg 70%
    19:00 +19°C° 0 mm 4 m/s 740 mmHg 72%
    20:00 +16°C° 0 mm 5 m/s 740 mmHg 74%
    21:00 +14°C° 0 mm 4 m/s 741 mmHg 70%
    22:00 +13°C° 0 mm 4 m/s 741 mmHg 65%
    23:00 +11°C° 0 mm 3 m/s 742 mmHg 60%
    Arată mai mult